TimePST,TemperatureF,Dew PointF,Humidity,Sea Level PressureIn,VisibilityMPH,Wind Direction,Wind SpeedMPH,Gust SpeedMPH,PrecipitationIn,Events,Conditions,WindDirDegrees,DateUTC
12:53 AM,46.0,28.0,50,29.55,-9999.0,West,18.4,31.1,N/A,,Unknown,260,2013-12-03 08:53:00
1:53 AM,45.0,28.0,52,29.55,-9999.0,West,20.7,28.8,N/A,,Unknown,260,2013-12-03 09:53:00
2:53 AM,43.0,30.0,60,29.53,-9999.0,West,12.7,-,N/A,,Unknown,280,2013-12-03 10:53:00
3:53 AM,42.1,30.0,62,29.52,-9999.0,West,10.4,-,N/A,,Unknown,270,2013-12-03 11:53:00
4:53 AM,42.1,30.9,65,29.51,-9999.0,West,28.8,39.1,N/A,,Unknown,270,2013-12-03 12:53:00
5:53 AM,41.0,30.9,67,29.50,-9999.0,NNW,13.8,23.0,N/A,,Unknown,340,2013-12-03 13:53:00
6:06 AM,30.9,27.0,85,29.62,-9999.0,NNW,19.6,27.6,N/A,,Unknown,340,2013-12-03 14:06:00
6:53 AM,24.1,21.0,88,29.60,-9999.0,North,17.3,25.3,0.01,,Unknown,10,2013-12-03 14:53:00
7:53 AM,21.9,19.0,89,29.65,-9999.0,North,15.0,-,0.03,,Unknown,10,2013-12-03 15:53:00
8:53 AM,21.0,18.0,88,29.68,-9999.0,North,12.7,-,0.04,,Unknown,350,2013-12-03 16:53:00
9:53 AM,19.9,16.0,85,29.71,-9999.0,North,13.8,-,0.06,,Unknown,360,2013-12-03 17:53:00
10:53 AM,19.9,16.0,85,29.69,-9999.0,North,13.8,-,0.04,,Unknown,360,2013-12-03 18:53:00
11:53 AM,19.9,16.0,85,29.69,-9999.0,North,11.5,-,0.06,,Unknown,360,2013-12-03 19:53:00
12:53 PM,19.9,16.0,85,29.66,-9999.0,North,10.4,-,0.06,,Unknown,10,2013-12-03 20:53:00
1:53 PM,19.9,16.0,85,29.67,-9999.0,North,3.5,-,0.01,,Unknown,350,2013-12-03 21:53:00
3:53 PM,19.0,15.1,85,29.67,-9999.0,NNW,5.8,-,N/A,,Unknown,340,2013-12-03 23:53:00
4:53 PM,-9999,-9999,N/A,29.69,-9999.0,NNW,3.5,-,N/A,,Unknown,330,2013-12-04 00:53:00
5:53 PM,15.1,10.9,84,29.72,-9999.0,North,5.8,-,N/A,,Unknown,360,2013-12-04 01:53:00
6:53 PM,12.9,9.0,84,29.80,-9999.0,NNW,5.8,-,N/A,,Unknown,340,2013-12-04 02:53:00
8:53 PM,7.0,3.0,84,29.84,-9999.0,Calm,Calm,-,N/A,,Unknown,0,2013-12-04 04:53:00
9:53 PM,-2.9,-7.1,82,29.90,-9999.0,South,6.9,-,N/A,,Unknown,190,2013-12-04 05:53:00
10:53 PM,-2.9,-8.0,79,29.90,-9999.0,South,9.2,-,N/A,,Unknown,190,2013-12-04 06:53:00